Simultaneous Nadir Overpasses (SNOs) Predictions

Prediction of SNOs between GOES-15 and NOAA-20 Satellite Orbit:

Table of predicted SNOs for the next 14.0 days since TLE Epoch: 6/22/2024
Index Date Time (GOES-15) GOES-15 Lat,Lon NOAA-20 Lat,Lon Distance(km) Time Diff (sec)
1 06/24/2024 09:20:34 0.16, 61.23 0.05, 60.68 61.87 80
2 06/25/2024 09:04:25 0.14, 61.22 1.02, 65.23 456.52 80
3 06/26/2024 21:23:30 -0.17, 61.27 0.09, 59.96 147.74 80
4 06/27/2024 21:07:21 -0.16, 61.26 -0.87, 64.52 370.48 80
5 06/29/2024 09:26:33 0.19, 61.21 -0.28, 59.22 227.71 80
6 06/30/2024 09:10:26 0.18, 61.21 0.75, 63.76 290.33 80
7 07/01/2024 21:29:29 -0.21, 61.26 0.41, 58.50 314.46 80
8 07/02/2024 21:13:22 -0.20, 61.26 -0.62, 63.04 203.03 80
9 07/04/2024 09:32:34 0.24, 61.23 -0.52, 57.74 396.59 80
10 07/05/2024 09:16:26 0.23, 61.23 0.45, 62.29 120.81 80
